Regional Weather Roundup
Issued by NWS

Home | Current Version | Previous Version | Text Only | Print | Product List | Glossary Off
Versions: 1 2 3 4 5 6 7 8 9 10 11 12 13 14 15 16 17 18 19 20 21 22 23 24 25 26 27 28 29 30 31 32 33 34 35 36 37 38 39 40 41 42 43 44 45 46 47 48 49 50

000
ASUS43 KFSD 302210
RWRSD

WEATHER ROUNDUP FOR SOUTH DAKOTA
NATIONAL WEATHER SERVICE SIOUX FALLS SD
400 PM CST FRI JAN 30 2015

NOTE: "FAIR" INDICATES FEW OR NO CLOUDS BELOW 12,000 FEET WITH NO
SIGNIFICANT WEATHER AND/OR OBSTRUCTIONS TO VISIBILITY.


SDZ001>005-009-010-012>017-302300-
NORTHWEST AND NORTH CENTRAL SOUTH DAKOTA

CITY           SKY/WX    TMP DP  RH WIND       PRES   REMARKS
BUFFALO          N/A     49  24  37 NW14      30.08S
FAITH            N/A     52  23  32 N15       30.12R
MOBRIDGE       SUNNY     46  29  51 W5        30.10S
$$

SDZ012>016-024>037-041>051-057-063-072>074-302300-
SOUTHWEST AND SOUTH CENTRAL SOUTH DAKOTA

CITY           SKY/WX    TMP DP  RH WIND       PRES   REMARKS
RAPID CTY ARPT MOSUNNY   50  26  39 N17       30.12F
PIERRE         SUNNY     46  24  42 NW5       30.13S
CUSTER         MOSUNNY   45  19  35 E7        30.12S
ELLSWORTH AFB  MOSUNNY   50  25  38 N18       30.12F
PHILIP         MOSUNNY   54  25  32 N12       30.12S
PINE RIDGE     MOSUNNY   50  24  36 NE10      30.12F
WINNER         FAIR      55  25  31 SW14      30.12S
$$

SDZ004>011-016>023-039-040-302300-
NORTHEAST SOUTH DAKOTA

CITY           SKY/WX    TMP DP  RH WIND       PRES   REMARKS
ABERDEEN       SUNNY     41  29  62 SW10      30.14F
WATERTOWN      SUNNY     37  28  70 SW21      30.13F
$$

SDZ017-020-022-023-036>040-048>070-302300-
SOUTHEAST SOUTH DAKOTA

CITY           SKY/WX    TMP DP  RH WIND       PRES   REMARKS
SIOUX FALLS    MOSUNNY   38  28  67 S16       30.22F
HURON          SUNNY     44  29  55 S9        30.16F
CHAMBERLAIN    SUNNY     54  27  36 W8        30.12F
MITCHELL       SUNNY     47  29  49 S12       30.17F
YANKTON        SUNNY     45  27  49 S17       30.21F
$$

ABBREVIATIONS USED IN REMARKS
   TC - TEMPERATURE IN CELSIUS
  WCI - WIND CHILL INDEX
   HX - HEAT INDEX
  VSB - VISIBILITY



USA.gov is the U.S. government's official web portal to all federal, state and local government web resources and services.